Simultaneous Nadir Overpasses (SNOs) Predictions

Prediction of SNOs between NOAA-20 and LANDSAT-8 Satellite Orbit:

Table of predicted SNOs for the next 14.0 days since TLE Epoch: 12/10/2022
Index Date (NOAA-20) Time (NOAA-20) Lat,Lon (NOAA-20) SZA (NOAA-20 ) Date (LANDSAT-8) Time (LANDSAT-8) Lat,Lon (LANDSAT-8) SZA (LANDSAT-8 ) Distance(km) Time Diff (sec)
1 12/10/2022 07:22:42 70.04, 65.65 92.86 12/10/2022 07:23:39 70.06, 65.58 92.88 3.32 57
2 12/10/2022 08:13:24 -69.95,-126.90 87.23 12/10/2022 08:13:09 -69.94,-126.96 87.24 2.44 15
3 12/10/2022 09:03:55 69.14, 41.59 91.95 12/10/2022 09:02:47 69.23, 39.73 92.07 74.04 68
4 12/12/2022 23:39:40 70.07,-178.63 93.10 12/12/2022 23:40:07 70.05,-178.56 93.08 3.33 27
5 12/13/2022 00:30:21 -69.92, -11.09 87.05 12/13/2022 00:29:37 -69.93, -11.09 87.04 1.09 44
6 12/15/2022 15:05:55 -70.26, 129.52 86.54 12/15/2022 15:07:07 -70.18, 129.86 86.64 16.06 72
7 12/15/2022 15:56:36 69.99, -62.75 93.18 12/15/2022 15:56:35 70.01, -62.72 93.21 2.96 1
8 12/15/2022 16:47:18 -69.90, 104.71 86.91 12/15/2022 16:46:05 -69.90, 104.76 86.91 1.95 73
9 12/18/2022 07:22:49 -70.08,-114.44 86.62 12/18/2022 07:23:36 -70.07,-114.40 86.63 1.92 47
10 12/18/2022 08:13:33 69.97, 53.05 93.27 12/18/2022 08:13:03 69.96, 53.09 93.26 1.83 30
11 12/20/2022 22:49:15 70.79,-167.12 94.17 12/20/2022 22:50:23 70.66,-165.28 94.00 68.90 68
12 12/20/2022 23:39:44 -70.01, 1.43 86.64 12/20/2022 23:40:03 -70.01, 1.40 86.65 1.70 19
13 12/21/2022 00:30:28 69.90, 168.91 93.25 12/21/2022 00:29:30 69.89, 168.88 93.25 1.63 58
14 12/23/2022 15:05:59 70.10, -50.25 93.45 12/23/2022 15:07:00 70.08, -50.25 93.42 2.46 61
15 12/23/2022 15:56:41 -70.00, 117.22 86.65 12/23/2022 15:56:30 -69.98, 117.24 86.68 3.26 11
16 12/23/2022 16:47:15 69.36, -74.53 92.69 12/23/2022 16:46:05 69.41, -75.88 92.78 53.21 70



Historial Predications of SNOs between NOAA-20 and LANDSAT-8
